Weather History for KHRO - May, 2012

Change the Weather History Date:

Tuesday, May 29, 2012

  Actual Average Record
Temperature  
Mean Temperature 79 °F 69 °F  
Max Temperature 93 °F 80 °F 99 °F (1926)
Min Temperature 64 °F 59 °F 40 °F (1947)
Degree Days  
Heating Degree Days 0 1  
Month to date heating degree days 18 75  
Since 1 July heating degree days 3076 3996  
Cooling Degree Days 14 5  
Month to date cooling degree days 188 93  
Year to date cooling degree days 316 130  
Growing Degree Days 28 (Base 50)    
Moisture  
Dew Point 57 °F    
Average Humidity 54    
Maximum Humidity 87    
Minimum Humidity 20    
Precipitation  
Precipitation 0.26 in 0.14 in 1.55 in (1962)
Month to date precipitation 0.51 4.41  
Year to date precipitation 13.41 17.72  
Snow  
Snow 0.00 in 0.00 in - ()
Month to date snowfall 0.0 0.0  
Since 1 July snowfall 2.1 11.5  
Snow Depth 0.00 in    
Sea Level Pressure  
Sea Level Pressure 29.87 in    
Wind  
Wind Speed 4 mph (East)    
Max Wind Speed 24 mph    
Max Gust Speed 37 mph    
Visibility 10 miles    
Events Rain , Thunderstorm    
T = Trace of Precipitation, MM = Missing Value Source: NWS Daily Summary

Daily Weather History Graph

Daily Weather History Graph

Search for Another Location

Airport or City:

Trip Planner

Search our weather history database for the weather conditions in past years. The results will help you decide how hot, cold, wet, or windy it might be!

Date:

Astronomy

May. 29, 2012 Rise Set
Actual Time 5:57 AM CDT 8:23 PM CDT
Civil Twilight 5:27 AM CDT 8:52 PM CDT
Nautical Twilight 4:51 AM CDT 9:29 PM CDT
Astronomical Twilight 4:10 AM CDT 10:09 PM CDT
Moon 2:04 PM CDT (5/29) 1:40 AM CDT (5/29)
Length of Visible Light 15h 25m
Length of Day
14h 25m
First Quarter, 59% of the Moon is Illuminated
May 29
First Quarter
Jun 4
Full
Jun 11
Last Quarter
Jun 19
New
Jun 26
First Quarter

Hourly Weather History & Observations

Time (CDT) Temp. Heat Index Dew Point Humidity Pressure Visibility Wind Dir Wind Speed Gust Speed Precip Events Conditions
12:53 AM 77.0 °F - 55.0 °F 47% 29.80 in 10.0 mi South 3.5 mph - N/A   Clear
1:53 AM 77.0 °F - 55.9 °F 48% 29.80 in 10.0 mi Calm Calm - N/A   Clear
2:53 AM 77.0 °F - 59.0 °F 54% 29.84 in 10.0 mi NW 3.5 mph - N/A   Clear
3:24 AM 77.0 °F - 59.0 °F 54% 29.91 in 10.0 mi NW 13.8 mph 23.0 mph N/A Thunderstorm Overcast
3:53 AM 69.1 °F - 63.0 °F 81% 29.88 in 10.0 mi NW 17.3 mph 36.8 mph 0.00 in Rain , Thunderstorm Light Thunderstorms and Rain
4:28 AM 64.4 °F - 60.8 °F 88% 29.94 in 2.5 mi North 5.8 mph 18.4 mph 0.21 in Rain , Thunderstorm Heavy Thunderstorms and Rain
4:36 AM 64.4 °F - 60.8 °F 88% 29.96 in 7.0 mi North 3.5 mph - 0.22 in Rain , Thunderstorm Light Thunderstorms and Rain
4:46 AM 64.4 °F - 62.6 °F 94% 29.95 in 6.0 mi ENE 3.5 mph - 0.25 in Rain , Thunderstorm Light Thunderstorms and Rain
4:53 AM 64.0 °F - 62.1 °F 93% 29.89 in 10.0 mi East 6.9 mph - 0.25 in Rain , Thunderstorm Light Thunderstorms and Rain
5:11 AM 64.4 °F - 62.6 °F 94% 29.93 in 10.0 mi North 3.5 mph - 0.00 in Rain Light Rain
5:53 AM 64.9 °F - 63.0 °F 93% 29.89 in 10.0 mi Calm Calm - 0.01 in Rain Light Rain
6:53 AM 64.9 °F - 63.0 °F 93% 29.88 in 10.0 mi South 6.9 mph - 0.00 in   Clear
7:53 AM 68.0 °F - 64.9 °F 90% 29.88 in 10.0 mi SSE 4.6 mph - N/A   Scattered Clouds
8:53 AM 71.1 °F - 64.0 °F 78% 29.90 in 10.0 mi Calm Calm - N/A   Scattered Clouds
9:53 AM 75.0 °F - 63.0 °F 66% 29.90 in 10.0 mi SE 4.6 mph - N/A   Clear
10:53 AM 79.0 °F - 63.0 °F 58% 29.89 in 10.0 mi Variable 3.5 mph - N/A   Clear
11:53 AM 84.0 °F 84.5 °F 62.1 °F 47% 29.89 in 10.0 mi Variable 3.5 mph - N/A   Clear
12:53 PM 87.1 °F 87.0 °F 61.0 °F 41% 29.88 in 10.0 mi Calm Calm - N/A   Clear
1:53 PM 89.1 °F 88.2 °F 59.0 °F 36% 29.87 in 10.0 mi NNW 4.6 mph - N/A   Clear
2:53 PM 90.0 °F 87.5 °F 53.1 °F 28% 29.86 in 10.0 mi Calm Calm - N/A   Clear
3:53 PM 91.9 °F - 45.0 °F 20% 29.85 in 10.0 mi Variable 3.5 mph - N/A   Clear
4:53 PM 91.9 °F - 50.0 °F 24% 29.84 in 10.0 mi Variable 3.5 mph - N/A   Clear
5:53 PM 91.0 °F - 48.9 °F 23% 29.83 in 10.0 mi North 4.6 mph - N/A   Clear
6:53 PM 89.1 °F - 45.0 °F 22% 29.83 in 10.0 mi ESE 5.8 mph - N/A   Clear
7:53 PM 84.0 °F - 50.0 °F 31% 29.83 in 10.0 mi ESE 4.6 mph - N/A   Clear
8:53 PM 81.0 °F - 48.0 °F 31% 29.83 in 10.0 mi SE 4.6 mph - N/A   Clear
9:53 PM 77.0 °F - 46.9 °F 34% 29.85 in 10.0 mi South 3.5 mph - N/A   Clear
10:53 PM 75.0 °F - 46.9 °F 37% 29.86 in 10.0 mi South 3.5 mph - N/A   Clear
11:53 PM 75.9 °F - 46.0 °F 35% 29.86 in 10.0 mi Calm Calm - N/A   Clear